Presure
147 110 117 140 132 153 151 172 132 147 164 131 134 123 139 131 223 364 137 215 291 129 351 133 267 338 218 293 318 312 283 267 239 163 231 217 159 236 223 214 200 200 183 159 177
112 127 136 143 136 143 153 156 138 139 155 272 170 193 168 316 226 181 391 219 222 203 135 226 239 338 332 312 313 324 166 270 243 221 206 233 232 170 232 223 203 198 183 182 136
138 117 115 144 144 129 133 158 159 144 229 230 408 126 148 391 336 215 173 177 266 119 340 354 325 342 196 217 318 306 197 276 219 247 215 173 118 91 232 228 208 198 198 193 165
127 131 135 122 123 135 143 143 141 146 222 437 268 140 338 407 360 234 129 126 235 347 143 332 160 176 325 221 316 335 322 300 257 139 219 236 244 188 227 221 105 205 201 204 195
144 137 116 134 128 156 133 155 140 160 446 147 417 415 319 405 401 395 152 274 144 334 346 322 227 225 343 336 319 154 321 302 282 250 199 219 256 235 77 115 220 136 203 200 173
130 142 142 149 142 129 139 140 208 407 417 186 320 124 289 367 316 343 419 389 359 159 328 339 105 298 341 329 335 313 308 305 276 261 241 244 250 200 229 239 180 62 114 202 197
130 130 138 119 151 145 138 159 282 294 433 441 419 416 419 376 385 389 389 144 371 192 141 336 233 326 331 329 319 312 339 310 295 268 257 243 221 252 229 209 221 219 202 202 92
142 105 150 155 167 135 153 125 459 427 430 441 411 398 395 380 386 126 377 185 364 141 338 333 328 324 325 321 319 313 318 308 303 274 256 249 243 247 214 237 227 168 217 205 203
127 145 152 126 175 164 142 280 194 444 437 320 413 377 359 377 384 390 367 354 350 338 336 333 328 323 324 322 335 326 303 331 310 285 273 258 239 248 218 237 223 218 229 213 206
146 130 121 158 119 141 175 210 400 429 432 397 421 415 233 399 210 321 374 383 376 346 342 337 335 341 339 318 334 325 308 142 187 294 279 266 246 230 230 230 233 223 233 219 206
126 148 118 177 155 122 380 406 228 419 73 429 161 397 375 365 360 367 387 371 368 384 336 339 347 343 105 320 300 362 346 288 305 292 287 277 251 243 238 244 240 149 220 223 211
126 156 140 137 159 199 258 464 219 413 400 143 149 356 357 213 350 299 347 332 376 361 383 344 345 329 321 302 337 300 297 320 317 301 287 275 255 250 246 234 222 238 220 220 217
159 134 149 141 223 209 210 444 429 136 410 150 143 335 354 261 303 335 329 336 362 370 365 380 361 313 328 319 319 350 300 343 348 310 294 278 268 247 253 240 242 237 230 212 226
107 162 146 159 267 216 231 145 437 368 394 134 142 237 348 342 336 329 194 323 330 343 377 374 369 365 332 329 357 364 356 345 339 316 308 290 270 263 253 245 225 239 235 214 207
155 240 141 142 251 153 136 412 423 146 149 387 282 150 339 327 326 325 311 320 320 333 341 363 353 360 375 325 352 310 330 349 318 305 306 302 284 266 249 257 238 243 237 227 214
138 130 187 193 176 253 190 264 408 155 240 128 361 341 332 324 323 327 318 337 317 321 328 326 350 355 363 356 325 346 305 334 317 303 301 302 292 267 258 240 250 238 207 231 219
126 160 189 263 158 226 141 387 419 270 125 215 232 336 323 318 319 322 435 436 418 447 321 318 319 340 347 369 350 342 322 324 334 299 306 299 287 268 254 239 238 244 236 224 235
161 152 245 255 130 230 260 125 415 392 330 336 341 328 314 311 317 410 418 415 423 430 478 313 310 305 336 339 356 330 307 314 316 325 305 289 295 275 251 251 233 240 234 239 234
153 245 235 245 131 246 240 385 378 365 157 356 335 322 311 307 330 406 405 400 391 385 425 450 303 296 288 323 353 335 313 322 325 312 294 287 293 278 257 245 248 234 237 228 234
169 180 241 227 255 239 296 395 247 278 358 354 330 318 305 301 337 376 380 366 373 386 391 402 429 290 286 287 318 314 306 304 322 326 302 280 286 289 265 258 253 238 236 226 225
214 248 184 213 220 202 188 396 332 133 308 344 325 311 300 296 307 378 353 357 354 368 374 393 397 429 295 281 319 327 312 298 290 309 298 289 291 297 267 250 248 233 236 228 225
250 222 242 148 240 350 399 391 320 359 349 169 321 308 296 292 293 375 366 358 360 357 361 362 377 405 301 278 268 310 313 295 291 306 299 288 293 286 275 250 240 236 233 236 227
240 246 234 125 229 310 400 385 370 360 346 338 318 303 296 287 325 371 380 368 355 356 353 359 369 381 305 283 270 293 304 298 286 283 296 289 281 276 285 259 245 239 224 228 226
196 138 210 134 282 333 362 381 370 360 339 336 312 300 293 286 325 365 364 383 345 344 339 341 360 382 305 280 273 276 300 305 285 277 286 291 282 278 268 224 250 241 237 230 221
159 167 224 265 281 310 327 377 368 350 343 332 316 295 291 287 331 383 363 372 341 325 324 328 343 366 304 283 270 258 270 298 294 274 280 286 290 279 268 266 253 242 235 232 223
212 210 255 229 439 268 393 376 309 347 341 326 311 294 287 281 404 387 366 370 354 330 321 335 325 344 358 285 268 260 261 270 288 286 275 285 283 283 281 269 266 249 240 235 230
166 175 223 183 437 305 383 372 359 343 335 320 304 290 285 280 442 381 362 354 363 330 333 329 328 331 355 286 267 262 259 257 269 288 279 283 287 284 280 276 263 264 248 236 234
Wind_Speed
48 29 29 47 40 51 53 65 33 33 55 51 50 62 51 68 50 44 56 59 57 54 58 56 57 75 58 72 82 91 90 79 76 63 83 82 51 101 106 101 91 85 85 89 83
28 39 49 54 49 53 56 52 33 31 58 70 63 56 66 42 60 59 48 43 40 54 50 52 53 73 77 74 78 88 41 80 81 84 78 92 98 71 101 102 94 89 87 86 66
53 34 37 59 58 52 41 64 62 52 85 89 44 64 65 44 46 59 65 65 55 22 57 63 66 72 54 54 75 79 58 87 75 88 85 64 34 19 97 99 96 94 91 89 90
49 50 61 41 45 53 64 59 57 59 92 45 70 64 53 48 47 57 65 55 40 57 48 65 54 47 70 55 73 81 85 91 88 54 86 92 101 71 91 94 42 96 94 91 88
68 59 50 63 55 72 55 66 66 64 55 61 50 52 55 47 40 48 62 49 56 57 62 64 58 49 70 72 75 54 84 89 92 93 70 87 101 94 20 35 98 59 94 92 92
57 67 74 77 76 61 71 68 89 55 61 80 58 61 48 37 44 41 41 53 60 44 59 64 30 61 70 71 73 71 81 90 91 93 93 92 95 78 94 93 75 16 44 95 90
60 65 71 47 80 79 75 86 90 71 61 57 54 49 37 44 39 38 39 29 56 41 41 62 54 64 64 70 67 72 86 87 93 94 95 93 86 92 94 85 97 102 96 97 33
79 48 79 83 89 77 89 60 69 63 60 53 46 44 38 36 34 27 36 42 49 29 58 61 61 62 64 68 69 71 82 86 92 94 96 96 87 93 87 99 96 68 107 100 100
64 84 81 60 90 88 83 96 91 67 56 58 44 40 38 34 33 35 36 42 48 54 57 59 59 63 65 65 71 75 73 83 88 92 96 96 91 94 87 96 96 99 102 106 103
86 59 55 89 64 91 91 94 70 66 54 50 41 37 24 30 26 32 33 37 42 50 54 58 58 60 63 63 63 64 70 58 62 89 95 93 91 90 89 90 97 97 97 107 105
51 88 51 94 90 62 100 95 74 53 10 46 63 31 28 27 29 28 34 39 40 43 54 55 57 55 29 60 63 66 77 75 86 90 92 96 94 96 94 95 97 65 99 106 108
51 95 79 77 92 96 104 63 72 52 48 51 54 34 28 40 28 34 30 35 45 44 47 54 49 54 58 63 63 67 69 78 89 90 92 94 96 97 97 93 91 96 100 102 110
93 71 64 76 110 98 94 65 65 57 49 58 48 35 26 33 28 29 33 34 40 46 46 49 51 58 58 64 66 67 64 74 79 90 92 95 99 98 98 96 95 95 99 99 103
44 94 78 73 124 99 94 77 60 58 48 45 53 50 27 25 25 28 34 37 40 40 48 50 50 59 59 62 61 63 61 72 79 90 92 94 95 99 96 97 89 92 93 90 95
98 99 81 84 101 77 75 68 57 40 56 43 40 56 28 27 27 25 31 38 41 42 39 44 52 53 59 52 61 58 66 64 78 84 91 95 98 95 98 96 91 88 90 94 99
62 48 80 100 88 102 84 101 57 62 49 37 37 32 31 29 28 27 26 25 41 43 42 43 49 53 52 58 60 65 66 68 81 84 88 87 92 95 96 85 89 91 89 91 96
45 81 104 130 75 96 67 69 52 48 41 44 51 33 32 32 30 27 16 10 13 14 45 43 45 49 54 59 63 68 71 67 74 86 81 83 91 90 93 92 91 89 90 92 92
101 97 115 120 65 94 108 43 49 45 45 42 35 33 34 34 31 16 11 10 15 17 6 46 45 47 50 52 58 64 67 68 74 80 79 81 88 84 91 94 94 91 91 89 89
77 122 108 108 64 103 90 64 50 44 44 37 35 34 34 34 27 18 12 12 7 6 4 2 49 50 50 52 58 64 67 65 73 73 80 79 78 84 92 96 96 92 89 86 81
103 88 113 98 122 106 67 59 61 48 39 36 34 33 35 34 20 11 15 6 5 1 7 5 11 54 58 61 60 64 64 64 62 71 82 79 78 82 87 89 92 93 89 87 83
103 121 82 92 100 99 67 54 51 54 39 34 34 34 34 35 28 15 12 8 8 7 8 6 21 19 65 59 56 62 65 66 66 66 78 84 77 79 86 89 89 92 88 87 83
126 102 125 71 110 88 55 49 46 41 37 56 33 33 33 36 33 9 13 17 17 9 7 17 16 20 64 60 62 61 66 66 69 67 74 79 77 72 86 91 92 92 89 87 85
126 124 116 61 104 64 52 47 40 37 36 33 31 33 34 34 21 14 14 18 17 20 14 11 17 27 67 67 67 63 65 70 66 66 74 79 78 74 74 90 93 93 90 88 86
95 62 94 64 125 54 52 45 41 36 34 31 31 32 34 31 22 16 15 13 21 23 21 20 15 21 66 60 58 56 59 66 69 70 72 79 81 76 75 68 93 94 92 91 88
93 86 106 144 135 55 49 40 37 37 34 31 28 32 33 33 21 20 17 15 30 26 25 25 22 24 68 65 62 62 57 63 70 74 75 78 82 81 77 78 93 95 94 90 90
106 105 135 106 40 58 40 37 39 36 32 32 30 30 34 33 20 19 18 20 34 36 29 28 31 35 34 69 66 70 68 67 72 76 76 77 79 81 81 80 80 93 93 92 90
82 88 111 91 34 45 38 35 34 33 34 29 31 32 35 35 18 22 17 19 31 41 43 34 30 34 33 71 72 72 69 67 67 73 75 75 73 80 80 77 79 81 91 91 89
Wind_Direction
329 298 308 334 325 331 328 323 290 310 318 277 270 285 276 275 295 266 276 283 253 271 233 286 245 228 246 228 224 225 227 219 215 235 222 223 238 219 220 221 224 224 219 224 220
302 324 335 332 315 334 326 317 299 300 319 320 291 288 296 282 273 282 242 262 254 273 285 257 250 228 227 228 225 222 234 221 213 219 222 221 222 225 219 219 220 224 220 220 223
331 320 309 332 331 315 327 323 321 321 313 317 308 284 283 278 280 269 275 275 255 228 232 226 232 227 241 243 225 225 227 222 222 215 220 227 225 229 218 219 217 221 222 222 224
331 331 339 323 311 326 330 329 323 320 321 313 317 287 285 278 272 274 283 297 225 235 289 232 259 249 227 244 225 219 219 221 218 254 220 219 221 229 220 218 226 219 222 223 220
329 331 323 336 332 324 322 313 321 313 321 302 302 295 291 287 282 266 280 256 276 235 228 230 249 244 224 222 221 254 218 218 220 218 230 219 220 220 206 213 219 223 220 223 222
332 329 330 328 331 316 326 320 317 319 317 314 302 297 302 276 277 271 255 238 239 278 235 229 285 233 223 222 219 219 218 216 219 219 218 220 220 219 221 218 219 250 230 221 221
335 339 336 320 328 330 325 325 322 320 315 311 308 303 297 287 280 271 261 263 238 266 285 230 247 230 225 225 221 217 214 216 215 218 219 218 219 219 220 221 217 218 221 221 222
326 318 324 325 325 327 326 322 329 320 321 316 308 303 297 287 278 248 256 286 237 236 234 230 229 229 225 225 222 217 218 216 213 218 217 219 217 218 222 220 217 231 219 221 219
328 327 328 334 323 326 323 334 323 324 324 314 311 303 295 289 275 264 256 246 241 237 234 233 227 227 225 224 220 217 217 216 215 217 220 219 217 219 217 220 218 218 219 220 219
324 336 338 323 327 332 324 329 328 326 324 319 317 312 305 290 292 270 256 248 238 236 234 234 228 226 224 224 223 221 216 242 235 216 220 219 217 220 220 218 219 217 219 217 220
347 326 322 320 329 326 333 333 323 326 287 321 321 311 299 287 280 273 255 249 240 232 234 231 228 225 234 225 219 217 213 217 215 215 217 219 216 218 220 220 221 236 217 217 220
340 319 335 341 329 331 342 334 321 332 324 335 334 315 304 314 281 278 266 260 244 233 229 229 228 225 222 221 219 220 216 212 213 214 215 217 217 218 218 219 218 219 218 220 220
318 324 324 327 337 332 336 334 333 331 331 319 335 322 305 313 287 270 264 258 247 239 229 229 223 224 218 220 219 216 216 212 209 215 214 217 217 217 219 219 220 219 218 220 222
324 326 336 332 343 337 332 317 335 329 331 329 329 321 314 303 285 268 293 257 254 244 233 224 221 221 220 217 216 212 209 210 208 211 213 216 217 218 218 219 217 221 221 223 223
323 337 331 336 336 332 322 334 335 329 321 332 332 323 319 306 296 281 264 254 252 247 238 224 220 220 218 215 214 213 212 208 210 213 213 213 214 215 218 218 220 222 222 221 221
340 328 334 332 330 335 331 339 335 322 332 324 333 326 322 314 308 298 273 263 246 245 239 226 219 217 214 210 211 208 213 208 208 213 215 213 215 216 218 219 221 220 221 223 222
320 339 336 346 325 331 336 332 335 328 317 326 327 328 323 320 320 313 334 311 269 280 232 227 218 219 213 209 204 206 209 209 209 214 212 212 212 211 216 218 221 219 220 221 224
319 334 344 345 328 330 339 331 336 334 333 332 330 329 324 324 328 341 2 341 7 355 264 222 217 215 217 211 205 206 212 212 211 212 215 211 212 205 213 217 220 220 219 222 224
339 346 335 338 328 332 336 331 332 332 313 333 329 330 326 327 329 26 11 21 26 285 63 80 213 209 210 208 205 201 208 210 214 212 214 215 211 206 210 216 219 221 220 219 222
326 328 341 333 342 337 326 330 324 324 336 336 330 331 327 329 339 34 47 57 329 296 191 177 194 206 209 209 202 204 203 207 210 210 211 214 211 207 207 214 217 219 222 217 219
324 342 332 335 329 336 327 329 326 319 329 335 330 330 329 328 332 140 302 220 220 244 181 180 193 218 208 210 204 201 199 201 208 208 210 217 213 208 205 210 216 219 220 220 218
347 335 341 318 334 336 328 328 326 330 334 319 330 328 328 327 331 245 231 227 202 179 212 213 190 214 202 206 209 201 196 203 209 206 209 215 217 209 207 208 214 218 220 222 221
342 345 333 326 330 328 327 327 326 328 332 333 330 326 329 329 312 255 215 217 199 189 188 183 212 200 197 201 207 203 199 200 207 210 211 211 216 208 208 208 211 216 219 221 223
335 318 332 322 342 329 325 327 324 327 330 330 327 325 327 330 309 258 250 216 188 181 191 196 200 182 196 201 208 207 203 199 203 207 212 211 212 215 207 212 209 213 216 220 221
325 330 329 344 342 324 325 325 322 325 330 329 328 324 327 330 306 220 239 215 188 206 212 210 188 173 194 198 200 206 205 204 203 208 212 216 214 214 209 209 209 212 215 216 220
322 338 338 332 331 322 324 325 321 323 329 326 326 328 327 329 229 225 219 208 192 206 216 201 197 177 187 196 199 206 205 205 206 207 212 214 217 216 216 213 211 212 215 217 217
326 337 337 324 332 327 323 323 322 324 327 326 326 327 328 330 216 224 211 205 195 204 210 205 203 190 184 197 201 208 206 208 210 208 213 213 213 219 220 217 214 212 214 217 217